EW1966 Weather Reports


time (UTC)temp
C
wind
direction
speed
KPH
gust
KPH
rain 1hr
cm
rain 24hr
cm
rain mn
cm
humidity
%
barometer
mb
20260507001515 22 288 16.1 29.0 0.00 0.00 0.00 47 1017.4
20260507000015 22 278 12.9 29.0 0.00 0.00 0.00 46 1017.4
20260506234511 23 262 4.8 12.9 0.00 0.00 0.00 40 1017.4
20260506233011 23 109 3.2 17.7 0.00 0.00 0.00 40 1017.6
20260506231510 23 288 9.7 19.3 0.00 0.00 0.00 44 1017.6
20260506230007 23 278 9.7 20.9 0.00 0.00 0.00 42 1017.6
20260506224507 23 264 8.0 12.9 0.00 0.00 0.00 42 1017.9
20260506223004 23 269 4.8 22.5 0.00 0.00 0.00 41 1018.2
20260506221503 23 291 6.4 17.7 0.00 0.00 0.00 43 1018.4
20260506220002 24 12 9.7 29.0 0.00 0.00 0.00 31 1018.5
20260506214602 25 33 4.8 11.3 0.00 0.00 0.00 34 1018.6
20260506213101 24 55 8.0 17.7 0.00 0.00 0.00 31 1018.9
20260506211558 24 68 8.0 19.3 0.00 0.00 0.00 32 1019.0
20260506210058 24 39 9.7 19.3 0.00 0.00 0.00 31 1019.1
20260506204557 24 74 6.4 14.5 0.00 0.00 0.00 33 1019.1
20260506203056 25 65 4.8 14.5 0.00 0.00 0.00 32 1019.3
20260506201554 25 56 6.4 12.9 0.00 0.00 0.00 33 1019.4
20260506200052 23 355 4.8 14.5 0.00 0.00 0.00 35 1019.6
20260506194551 23 18 0.0 8.0 0.00 0.00 0.00 36 1019.6
20260506193054 23 51 4.8 14.5 0.00 0.00 0.00 35 1019.8
20260506191548 22 323 8.0 16.1 0.00 0.00 0.00 35 1019.9
20260506190050 22 276 8.0 17.7 0.00 0.00 0.00 38 1020.1
20260506184546 22 72 4.8 16.1 0.00 0.00 0.00 41 1020.0
20260506183043 22 61 1.6 9.7 0.00 0.00 0.00 42 1020.1
20260506181556 20 62 1.6 12.9 0.00 0.00 0.00 43 1020.3
20260506180039 20 266 0.0 6.4 0.00 0.00 0.00 44 1020.3
20260506174538 19 207 0.0 14.5 0.00 0.00 0.00 48 1020.4
20260506173102 19 34 3.2 9.7 0.00 0.00 0.00 47 1020.5
20260506171541 18 352 1.6 14.5 0.00 0.00 0.00 54 1020.5
20260506170048 18 276 3.2 8.0 0.00 0.00 0.00 50 1020.4
20260506164529 17 186 1.6 6.4 0.00 0.00 0.00 51 1020.3
20260506163029 16 248 0.0 6.4 0.00 0.00 0.00 54 1020.4
20260506161524 15 288 1.6 6.4 0.00 0.00 0.00 56 1020.4
20260506160020 15 286 3.2 8.0 0.00 0.00 0.00 55 1020.5
20260506154518 14 299 0.0 3.2 0.00 0.00 0.00 65 1020.4
20260506153021 13 20 0.0 1.6 0.00 0.00 0.00 66 1020.3
20260506151513 13 29 3.2 6.4 0.00 0.00 0.00 67 1020.4
20260506150014 12 26 0.0 1.6 0.00 0.00 0.00 71 1020.3
20260506144505 11 315 0.0 3.2 0.00 0.00 0.00 72 1020.3
20260506143003 11 56 0.0 1.6 0.00 0.00 0.00 74 1020.2
20260506141503 11 55 1.6 4.8 0.00 0.00 0.00 74 1020.1
20260506140100 10 80 0.0 3.2 0.00 0.00 0.00 78 1020.1
20260506134557 8 248 1.6 4.8 0.00 0.00 0.00 78 1019.9
20260506133114 8 207 3.2 6.4 0.00 0.00 0.00 80 1019.8
20260506131553 7 226 1.6 6.4 0.00 0.00 0.00 82 1019.6
20260506130114 7 245 0.0 4.8 0.00 0.00 0.00 83 1019.5
20260506124552 7 214 0.0 6.4 0.00 0.00 0.00 83 1019.6
20260506123051 7 243 0.0 1.6 0.00 0.00 0.00 82 1019.6
20260506121548 7 163 1.6 3.2 0.00 0.00 0.00 82 1019.2
20260506120047 7 107 0.0 8.0 0.00 0.00 0.00 80 1019.3
20260506114548 8 278 4.8 16.1 0.00 0.00 0.00 78 1019.1
20260506113046 7 214 6.4 16.1 0.00 0.00 0.00 80 1019.1
20260506111544 8 227 8.0 17.7 0.00 0.00 0.00 80 1019.0
20260506110046 7 229 9.7 20.9 0.00 0.00 0.00 81 1019.0
20260506104607 8 274 9.7 20.9 0.00 0.00 0.00 78 1019.0
20260506103043 8 290 14.5 27.4 0.00 0.00 0.00 78 1018.8
20260506101547 8 249 17.7 32.2 0.00 0.00 0.00 78 1018.9
20260506100043 8 265 17.7 30.6 0.00 0.00 0.00 80 1019.0
20260506094539 8 241 14.5 33.8 0.00 0.00 0.00 83 1019.0
20260506093036 7 244 17.7 29.0 0.00 0.00 0.00 84 1019.0
20260506091534 7 264 17.7 29.0 0.00 0.00 0.00 84 1018.9
20260506090042 7 285 19.3 32.2 0.00 0.00 0.00 84 1019.3
20260506084536 7 244 19.3 29.0 0.00 0.00 0.00 84 1019.4
20260506083039 7 277 20.9 38.6 0.00 0.00 0.00 84 1019.3
20260506081528 7 257 19.3 33.8 0.00 0.00 0.00 83 1019.2
20260506073025 7 243 19.3 30.6 0.00 0.00 0.00 83 1019.2
20260506071525 7 241 19.3 30.6 0.00 0.00 0.00 83 1019.2
20260506061516 7 252 16.1 27.4 0.00 0.00 0.00 84 1018.6
20260506044511 8 271 14.5 27.4 0.00 0.00 0.00 82 1018.4
20260506043014 8 238 16.1 27.4 0.00 0.00 0.00 83 1017.9
20260506041509 8 256 14.5 22.5 0.00 0.00 0.00 84 1018.1
20260506040008 8 280 12.9 25.7 0.00 0.00 0.00 83 1018.0
20260506034507 8 264 17.7 24.1 0.00 0.00 0.00 83 1017.5
20260506033006 8 240 16.1 24.1 0.00 0.00 0.00 83 1017.5
20260506031503 8 260 14.5 24.1 0.00 0.00 0.00 81 1017.4
20260506030002 8 269 17.7 29.0 0.00 0.00 0.00 80 1017.2
20260506024700 8 269 11.3 19.3 0.00 0.00 0.00 79 1017.0
20260506023059 9 219 11.3 22.5 0.00 0.00 0.00 78 1016.8
20260506021605 9 245 14.5 27.4 0.00 0.00 0.00 78 1016.5
20260506020058 10 234 14.5 24.1 0.00 0.00 0.00 77 1016.6
20260506014559 10 259 14.5 24.1 0.00 0.00 0.00 76 1016.4
20260506013057 10 259 12.9 22.5 0.00 0.00 0.00 75 1016.3
20260506011556 10 252 16.1 25.7 0.00 0.00 0.00 74 1016.4
20260506010058 11 231 16.1 25.7 0.00 0.00 0.00 73 1016.4
20260506004555 12 264 17.7 25.7 0.00 0.00 0.00 70 1016.1
20260506003103 11 261 14.5 32.2 0.00 0.00 0.00 72 1016.1